User: anonymous   Login
Location: Vancouver
(49.2500°N, 123.1330°W)
Time: 18:23:02
(UTC-07:00)
Language:

Cosmos 1864 Rocket - Orbit

View from above orbital plane
View from above orbital plane
View from above satellite
View from above satellite

Ground track
Ground track

The orbit data is extracted from the following two-line orbital elements,

1 18161U 87057B   14296.47193770  .00000059  00000-0  44107-4 0  5927
2 18161 082.9346 072.0085 0032297 140.4083 281.8855 13.76860351351057
Epoch (UTC): 23 October 2014 11:19:35
Eccentricity: 0.0032297
inclination: 82.9346°
perigee height: 951 km
apogee height: 999 km
right ascension of ascending node: 72.0085°
argument of perigee: 140.4083°
revolutions per day: 13.76860351
mean anomaly at epoch: 281.8855°
orbit number at epoch: 35105

The dashed part of the orbit path shows where the satellite is in the earth's shadow,  

DLR